sat.trackr.live / text

‹ back to catalog

INTELSAT 37E (IS-37E)

NORAD 42950 · 2017-059A

PAYLOAD ACTIVE UNKNOWN

§ Identity

Operator
Country
ITSO
Launch date
2017-09-29
Launch site
FRGUI
Launch vehicle
Mass (kg)
RCS (m²)

Purposes: comms

External: N2YO · Heavens-Above · Gunter

§ Orbital elements

Epoch: 2026-09-19T23:43:42.441024Z

Period
1,436.10 min
Inclination
0.0188°
Eccentricity
0.0002726
Mean motion
1.00271785 rev/d
Perigee alt
35,775.1 km
Apogee alt
35,798.1 km
Semi-major
42,164.7 km
B*
0.0000e+0
RAAN
152.0240°
Arg perigee
23.5990°
Mean anomaly
161.2068°
Rev number
3,301

§ Raw data

INTELSAT 37E (IS-37E)1 42950U 17059A   26262.98868566 -.00000145  00000+0  00000+0 0  99952 42950   0.0188 152.0240 0002726  23.5990 161.2068  1.00271785 33010

JSON: /api/v1/satellites/42950 · /tle

For live sub-satellite position, see the globe view (requires WebGL).

§ Visibility from observer

Set your observer location to see the next 7 days of passes ≥ 10°. The values pass through the URL so the page stays shareable.

No JS? Fill the form by hand. The geolocation button needs JavaScript.